Regional Weather Roundup
Issued by NWS

Home | Current Version | Previous Version | Graphics & Text | Print | Product List | Glossary On
Versions: 1 2 3 4 5 6 7 8 9 10 11 12 13 14 15 16 17 18 19 20 21 22 23 24 25 26 27 28 29 30 31 32 33 34 35 36 37 38 39 40 41 42 43 44 45 46 47 48 49 50
046
ASUS45 KSLC 280710
RWRUT

UTAH REGIONAL WEATHER ROUNDUP
NATIONAL WEATHER SERVICE SALT LAKE CITY UT
100 AM MDT TUE MAR 28 2017

UTZ001>011-023>025-280800-

NORTHERN UTAH

CITY           SKY/WX    TMP DP  RH WIND       PRES   REMARKS
BRIGHAM CITY     N/A     42  30  60 NW18      30.03R
HILL AFB       MOCLDY    39  32  75 N15       30.01R WCI  31
LOGAN          CLOUDY    43  34  70 N14       30.04R
OGDEN          CLOUDY    40  32  73 N12       30.02R WCI  33
SALT LAKE CITY MOCLDY    41  35  79 N9        30.00R
TOOELE VALLEY  CLOUDY    43  34  70 N12       30.04R
WENDOVER       CLEAR     41  23  48 NW20G25   30.07F
HEBER CITY     CLOUDY    39  34  81 NE8       29.95R WCI  34
WEST JORDAN    CLOUDY    44  39  84 NW17      30.01R

$$

UTZ011>015-024>027-280800-

CENTRAL/NORTHEAST UTAH

CITY           SKY/WX    TMP DP  RH WIND       PRES   REMARKS
PROVO AIRPORT  CLOUDY    42  34  73 N14       29.99R
MOAB/CANYONLAN PTCLDY    43  41  93 CALM      29.82R
DELTA          CLOUDY    37  32  81 NW14      30.02S WCI  29
PRICE          MOCLDY    39  32  76 NW10      29.85S WCI  32
ROOSEVELT      CLOUDY    41  37  87 CALM      29.89R
VERNAL         CLOUDY    42  39  89 CALM      29.87R

$$

UTZ013>016-019>022-027-280800-

SOUTHERN UTAH

CITY           SKY/WX    TMP DP  RH WIND       PRES   REMARKS
BRYCE CANYON   CLOUDY    32  26  78 NW14      29.91R WCI  22
CEDAR CITY     LGT RAIN  34  32  92 N7        29.99R WCI  28
MILFORD        CLOUDY    34  33  96 N9        30.00S WCI  27
ST GEORGE      PTSUNNY   50  35  56 S12       29.93R
HANKSVILLE     CLOUDY    41  37  87 W3        29.87S
BLANDING       CLOUDY    39  38  93 CALM      29.92R

$$

REGIONAL REPORTS     COLORADO/ARIZONA

CITY           SKY/WX    TMP DP  RH WIND       PRES   REMARKS
CRAIG, CO      CLOUDY    35  31  85 CALM      29.84S
GRAND JUNCTION CLOUDY    43  42  97 E3        29.85S
RIFLE, CO      LGT RAIN  44  38  79 W13G22    29.85R
MONTROSE, CO   CLOUDY    39  37  92 NW3       29.87S
CORTEZ, CO     CLOUDY    40  38  93 NE6       29.87R
COLORADO CITY    N/A     43  32  65 NW10      29.94R
PAGE, AZ       CLOUDY    49  31  49 W6        29.83R
GRAND CANYON   MOCLDY    36  29  75 VRB5      29.90S WCI  32
KINGMAN, AZ    PTCLDY    47  27  45 N10       29.94S
FLAGSTAFF, AZ  CLOUDY    34  27  75 W8        29.87F WCI  27

$$

REGIONAL REPORTS    NEVADA/IDAHO/WYOMING

CITY           SKY/WX    TMP DP  RH WIND       PRES   REMARKS
LAS VEGAS, NV  PTCLDY    59  24  26 NW17G25   29.97R
ELY, NY        MOCLDY    31  25  78 NW8       30.11R WCI  23
ELKO, NV       CLEAR     32  26  78 SW3       30.17S
POCATELLO, ID  CLOUDY    36  34  92 SW16      30.11R WCI  26
BURLEY, ID     PTCLDY    38  27  64 SW14G23   30.11R WCI  30
FORT BRIDGER,  CLOUDY    33  33 100 NW13      29.98S WCI  24
EVANSTON, WY   CLOUDY    31  28  89 N16       29.97S WCI  20
ROCK SPRINGS,  LGT RAIN  37  33  85 N8        29.91S WCI  31
KEMMERER, WY     N/A     32  28  86 NW14      29.96S WCI  22

$$




USA.gov is the U.S. government's official web portal to all federal, state and local government web resources and services.